Ely, MN

6:44 PM CST on February 23, 2017 (GMT -0600)
Ely Municipal

Weather History for KELO - September, 2013

Change the Weather History Date:

Saturday, September 14, 2013

  Actual Average Record
Temperature  
Mean Temperature 58 °F -  
Max Temperature 69 °F 65 °F 80 °F (1997)
Min Temperature 48 °F 44 °F 30 °F (2012)
Degree Days  
Heating Degree Days 6    
Growing Degree Days 8 (Base 50)    
Moisture  
Dew Point 50 °F    
Average Humidity 76    
Maximum Humidity 94    
Minimum Humidity 56    
Precipitation  
Precipitation 0.04 in - - ()
Sea Level Pressure  
Sea Level Pressure 29.93 in    
Wind  
Wind Speed 6 mph (SW)    
Max Wind Speed 12 mph    
Max Gust Speed 20 mph    
Visibility 10 miles    
Events Rain    
Averages and records for this station are not official NWS values.
T = Trace of Precipitation, MM = Missing Value Source: NWS Daily Summary

Daily Weather History Graph

Daily Weather History Graph

Search for Another Location

Airport or City:

Trip Planner

Search our weather history database for the weather conditions in past years. The results will help you decide how hot, cold, wet, or windy it might be!

Date:

Astronomy

Sep. 14, 2013 Rise Set
Actual Time 6:43 AM CDT 7:21 PM CDT
Civil Twilight 6:12 AM CDT 7:52 PM CDT
Nautical Twilight 5:35 AM CDT 8:29 PM CDT
Astronomical Twilight 4:56 AM CDT 9:07 PM CDT
Moon 4:18 PM CDT (9/14) 12:57 AM CDT (9/14)
Length of Visible Light 13h 39m
Length of Day
12h 37m
Waxing Gibbous, 72% of the Moon is Illuminated
Sep 14
Waxing Gibbous
Sep 19
Full
Sep 26
Last Quarter
Oct 4
New
Oct 11
First Quarter

Hourly Weather History & Observations

Time (CDT) Temp. Dew Point Humidity Pressure Visibility Wind Dir Wind Speed Gust Speed Precip Events Conditions
12:12 AM 50.0 °F 44.6 °F 82% 30.03 in 10.0 mi SSW 4.6 mph - N/A   Clear
12:33 AM 50.0 °F 44.6 °F 82% 30.03 in 10.0 mi SSW 3.5 mph - N/A   Clear
12:53 AM 48.2 °F 44.6 °F 87% 30.02 in 10.0 mi SSW 4.6 mph - N/A   Clear
1:12 AM 48.2 °F 44.6 °F 87% 30.01 in 10.0 mi SSW 3.5 mph - N/A   Clear
1:33 AM 48.2 °F 44.6 °F 87% 30.01 in 10.0 mi Calm Calm - N/A   Clear
1:53 AM 48.2 °F 44.6 °F 87% 30.01 in 10.0 mi Calm Calm - N/A   Clear
2:12 AM 48.2 °F 44.6 °F 87% 30.01 in 10.0 mi SSW 3.5 mph - N/A   Clear
2:33 AM 48.2 °F 44.6 °F 87% 30.01 in 10.0 mi SW 4.6 mph - N/A   Clear
2:53 AM 48.2 °F 44.6 °F 87% 30.00 in 10.0 mi SSW 5.8 mph - N/A   Clear
3:12 AM 48.2 °F 44.6 °F 87% 29.99 in 10.0 mi SSW 5.8 mph - N/A   Clear
3:33 AM 48.2 °F 44.6 °F 87% 29.99 in 10.0 mi SSW 5.8 mph - N/A   Clear
3:53 AM 48.2 °F 44.6 °F 87% 29.98 in 10.0 mi SSW 5.8 mph - N/A   Clear
4:12 AM 48.2 °F 42.8 °F 82% 29.97 in 10.0 mi SSW 5.8 mph - N/A   Clear
4:33 AM 48.2 °F 44.6 °F 87% 29.97 in 10.0 mi SSW 4.6 mph - N/A   Clear
4:53 AM 48.2 °F 42.8 °F 82% 29.97 in 10.0 mi SW 5.8 mph - N/A   Clear
5:12 AM 48.2 °F 44.6 °F 87% 29.98 in 10.0 mi SSW 6.9 mph - N/A   Clear
5:33 AM 48.2 °F 44.6 °F 87% 29.97 in 10.0 mi SSW 4.6 mph - N/A   Clear
5:52 AM 48.2 °F 44.6 °F 87% 29.97 in 10.0 mi SSW 6.9 mph - N/A   Clear
6:13 AM 48.2 °F 44.6 °F 87% 29.96 in 10.0 mi SSW 8.1 mph - N/A   Clear
6:33 AM 50.0 °F 44.6 °F 82% 29.96 in 10.0 mi SSW 6.9 mph - N/A   Clear
6:52 AM 50.0 °F 44.6 °F 82% 29.96 in 10.0 mi SSW 8.1 mph - N/A   Clear
7:13 AM 50.0 °F 44.6 °F 82% 29.96 in 10.0 mi SSW 6.9 mph - N/A   Clear
7:33 AM 51.8 °F 44.6 °F 76% 29.96 in 10.0 mi SSW 5.8 mph - N/A   Clear
7:52 AM 51.8 °F 44.6 °F 76% 29.95 in 10.0 mi SSW 6.9 mph - N/A   Clear
8:13 AM 53.6 °F 44.6 °F 72% 29.95 in 10.0 mi SW 6.9 mph - N/A   Clear
8:33 AM 53.6 °F 44.6 °F 72% 29.95 in 10.0 mi SW 8.1 mph - N/A   Clear
8:53 AM 55.4 °F 46.4 °F 72% 29.94 in 10.0 mi SW 10.4 mph - N/A   Clear
9:13 AM 55.4 °F 46.4 °F 72% 29.94 in 10.0 mi SW 8.1 mph - N/A   Clear
9:33 AM 57.2 °F 46.4 °F 67% 29.93 in 10.0 mi SSW 9.2 mph - N/A   Clear
9:52 AM 57.2 °F 46.4 °F 67% 29.92 in 10.0 mi SSW 9.2 mph - N/A   Clear
10:13 AM 59.0 °F 48.2 °F 67% 29.91 in 10.0 mi SSW 10.4 mph - N/A   Clear
10:33 AM 60.8 °F 48.2 °F 63% 29.91 in 10.0 mi SW 8.1 mph - N/A   Clear
10:53 AM 62.6 °F 51.8 °F 68% 29.90 in 10.0 mi SSW 5.8 mph - N/A   Clear
11:13 AM 62.6 °F 50.0 °F 63% 29.90 in 10.0 mi WSW 10.4 mph 19.6 mph N/A   Clear
11:33 AM 64.4 °F 50.0 °F 59% 29.89 in 10.0 mi SW 9.2 mph 16.1 mph N/A   Clear
11:53 AM 64.4 °F 51.8 °F 64% 29.89 in 10.0 mi WSW 10.4 mph 17.3 mph N/A   Clear
12:12 PM 66.2 °F 51.8 °F 60% 29.88 in 10.0 mi SW 10.4 mph - N/A   Clear
12:33 PM 68.0 °F 51.8 °F 56% 29.87 in 10.0 mi SW 9.2 mph - N/A   Clear
12:53 PM 69.8 °F 53.6 °F 56% 29.87 in 10.0 mi SW 5.8 mph - N/A   Clear
1:12 PM 69.8 °F 53.6 °F 56% 29.86 in 10.0 mi WSW 10.4 mph - N/A   Clear
1:33 PM 66.2 °F 53.6 °F 64% 29.86 in 10.0 mi SW 6.9 mph - N/A   Clear
1:53 PM 66.2 °F 53.6 °F 64% 29.86 in 10.0 mi SW 6.9 mph - N/A   Clear
2:12 PM 66.2 °F 53.6 °F 64% 29.86 in 10.0 mi SW 6.9 mph - N/A   Clear
2:33 PM 66.2 °F 53.6 °F 64% 29.86 in 10.0 mi SSW 6.9 mph - N/A   Clear
2:52 PM 66.2 °F 55.4 °F 68% 29.85 in 10.0 mi SW 6.9 mph - N/A   Clear
3:13 PM 66.2 °F 53.6 °F 64% 29.85 in 10.0 mi SW 9.2 mph - N/A   Clear
3:33 PM 68.0 °F 53.6 °F 60% 29.85 in 10.0 mi SW 6.9 mph - N/A   Clear
3:52 PM 66.2 °F 53.6 °F 64% 29.86 in 10.0 mi SW 10.4 mph 16.1 mph N/A   Clear
4:13 PM 66.2 °F 53.6 °F 64% 29.86 in 10.0 mi WSW 5.8 mph - N/A   Clear
4:33 PM 66.2 °F 53.6 °F 64% 29.87 in 10.0 mi WSW 5.8 mph - N/A   Clear
4:52 PM 66.2 °F 53.6 °F 64% 29.88 in 10.0 mi WSW 8.1 mph - N/A   Mostly Cloudy
5:13 PM 66.2 °F 53.6 °F 64% 29.88 in 10.0 mi WSW 10.4 mph 16.1 mph N/A   Overcast
5:33 PM 64.4 °F 53.6 °F 68% 29.88 in 10.0 mi SW 9.2 mph - N/A   Overcast
5:52 PM 64.4 °F 53.6 °F 68% 29.88 in 10.0 mi SW 9.2 mph - N/A   Mostly Cloudy
6:13 PM 64.4 °F 53.6 °F 68% 29.87 in 10.0 mi SW 6.9 mph - N/A   Scattered Clouds
6:32 PM 62.6 °F 53.6 °F 72% 29.88 in 10.0 mi SW 5.8 mph - N/A   Scattered Clouds
6:53 PM 62.6 °F 53.6 °F 72% 29.88 in 10.0 mi SW 6.9 mph - N/A   Mostly Cloudy
7:13 PM 62.6 °F 53.6 °F 72% 29.89 in 10.0 mi SW 4.6 mph - N/A   Overcast
7:33 PM 62.6 °F 53.6 °F 72% 29.89 in 10.0 mi SW 5.8 mph - N/A   Overcast
7:53 PM 60.8 °F 53.6 °F 77% 29.89 in 10.0 mi SW 5.8 mph - N/A Rain Light Rain
8:13 PM 60.8 °F 55.4 °F 82% 29.90 in 10.0 mi SW 8.1 mph 17.3 mph N/A Rain Light Rain
8:32 PM 59.0 °F 55.4 °F 88% 29.90 in 5.0 mi SW 11.5 mph - N/A Rain Heavy Rain
8:53 PM 57.2 °F 55.4 °F 94% 29.91 in 7.0 mi SW 9.2 mph - N/A Rain Light Rain
9:13 PM 57.2 °F 55.4 °F 94% 29.92 in 10.0 mi SW 9.2 mph - N/A   Overcast
9:32 PM 57.2 °F 53.6 °F 88% 29.92 in 10.0 mi SW 10.4 mph 18.4 mph 0.01 in   Overcast
9:53 PM 55.4 °F 53.6 °F 94% 29.92 in 10.0 mi SW 10.4 mph - 0.01 in   Overcast
10:13 PM 55.4 °F 53.6 °F 94% 29.92 in 10.0 mi SW 5.8 mph - 0.01 in Rain Light Rain
10:33 PM 55.4 °F 51.8 °F 88% 29.93 in 10.0 mi SSW 5.8 mph - 0.01 in Rain Light Rain
10:53 PM 55.4 °F 51.8 °F 88% 29.93 in 10.0 mi SW 8.1 mph - 0.02 in Rain Rain
11:12 PM 53.6 °F 51.8 °F 94% 29.94 in 10.0 mi SW 6.9 mph - N/A Rain Light Rain
11:33 PM 53.6 °F 51.8 °F 94% 29.94 in 10.0 mi SW 5.8 mph - 0.01 in Rain Light Rain
11:53 PM 53.6 °F 51.8 °F 94% 29.94 in 10.0 mi SW 4.6 mph - 0.01 in Rain Light Rain